Location: Lincolnton
(35.4660°N, 81.2500°W)
Time: 23:04:39
(UTC-04:00)

Hubble Space Telescope - Visible Passes

Search period start: 18 April 2015 00:00
Search period end: 28 April 2015 00:00
Orbit: 543 x 546 km, 28.5° (Epoch: 18 April)

Date Brightness Start Highest point End Pass type
(mag) Time Alt. Az. Time Alt. Az. Time Alt. Az.
18 Apr 1.9 05:15:08 27° S 05:15:34 28° S 05:19:10 10° ESE visible
19 Apr 1.9 05:07:01 30° S 05:07:01 30° S 05:10:40 10° ESE visible
20 Apr 1.9 04:58:57 30° SSE 04:58:57 30° SSE 05:02:09 10° ESE visible
21 Apr 2.1 04:50:55 27° SSE 04:50:55 27° SSE 04:53:35 10° ESE visible
22 Apr 2.5 04:42:57 23° SE 04:42:57 23° SE 04:45:00 10° ESE visible
23 Apr 2.9 04:35:04 17° SE 04:35:04 17° SE 04:36:21 10° SE visible
23 Apr 2.6 06:10:57 10° WSW 06:13:34 16° SSW 06:16:07 10° SSE visible
24 Apr 3.3 04:27:18 12° SE 04:27:18 12° SE 04:27:40 10° SE visible
24 Apr 2.8 06:02:54 10° SW 06:04:57 13° SSW 06:06:53 10° S visible
25 Apr 2.9 05:55:31 10° SSW 05:56:18 10° SSW 05:56:58 10° SSW visible
